Weather History for Florala, AL

Change the Weather History Date:

Friday, May 24, 2013

  Actual Average (KCEW) Record (KCEW)
Temperature  
Mean Temperature 76 °F -  
Max Temperature 87 °F 87 °F 98 °F (2005)
Min Temperature 63 °F 61 °F 50 °F (2001)
Cooling Degree Days 10    
Growing Degree Days 26 (Base 50)    
Moisture  
Dew Point 57 °F    
Average Humidity 56    
Maximum Humidity 87    
Minimum Humidity 29    
Precipitation  
Precipitation 0.00 in - - ()
Sea Level Pressure  
Sea Level Pressure 30.11 in    
Wind  
Wind Speed 4 mph (North)    
Max Wind Speed 14 mph    
Max Gust Speed 22 mph    
Visibility 10 miles    
Events      
Averages and records for this station are not official NWS values.
T = Trace of Precipitation, MM = Missing Value Source: NWS Daily Summary

Daily Weather History Graph

Daily Weather History Graph

Search for Another Location

Airport:

Trip Planner

Search our weather history database for the weather conditions in past years. The results will help you decide how hot, cold, wet, or windy it might be!

Date:

Astronomy

May. 24, 2013 Rise Set
Actual Time 5:44 AM CDT 7:39 PM CDT
Civil Twilight 5:17 AM CDT 8:06 PM CDT
Nautical Twilight 4:45 AM CDT 8:39 PM CDT
Astronomical Twilight 4:10 AM CDT 9:14 PM CDT
Moon 7:22 PM CDT (5/24) 5:13 AM CDT (5/24)
Length of Visible Light 14h 49m
Length of Day
13h 54m
Full, 100% of the Moon is Illuminated
May 24
Full
May 24
Full
May 31
Last Quarter
Jun 8
New
Jun 16
First Quarter

Hourly Weather History & Observations

Time (CDT) Temp. Heat Index Dew Point Humidity Pressure Visibility Wind Dir Wind Speed Gust Speed Precip Events Conditions
12:58 AM 69.1 °F - 63.0 °F 81% 30.03 in 10.0 mi Calm Calm - N/A   Clear
1:58 AM 66.9 °F - 63.0 °F 87% 30.02 in 10.0 mi Calm Calm - N/A   Clear
2:58 AM 69.1 °F - 63.0 °F 81% 30.04 in 10.0 mi Calm Calm - N/A   Clear
3:58 AM 69.1 °F - 62.1 °F 78% 30.04 in 10.0 mi Calm Calm - N/A   Clear
4:58 AM 66.0 °F - 62.1 °F 87% 30.04 in 10.0 mi Calm Calm - N/A   Clear
5:58 AM 68.0 °F - 62.1 °F 81% 30.07 in 10.0 mi Calm Calm - N/A   Clear
6:58 AM 70.0 °F - 63.0 °F 78% 30.09 in 10.0 mi North 5.8 mph - N/A   Clear
7:58 AM 73.9 °F - 62.1 °F 66% 30.11 in 10.0 mi NNE 8.1 mph - N/A   Clear
8:58 AM 78.1 °F - 60.1 °F 54% 30.14 in 10.0 mi NNE 9.2 mph - N/A   Partly Cloudy
9:58 AM 81.0 °F 81.6 °F 60.1 °F 49% 30.14 in 10.0 mi North 8.1 mph - N/A   Clear
10:58 AM 82.9 °F 83.3 °F 61.0 °F 47% 30.14 in 10.0 mi North 9.2 mph - N/A   Clear
11:58 AM 84.0 °F 83.8 °F 59.0 °F 43% 30.14 in 10.0 mi North 10.4 mph 17.3 mph N/A   Clear
12:58 PM 86.0 °F 85.4 °F 59.0 °F 40% 30.13 in 10.0 mi North 9.2 mph - N/A   Clear
1:58 PM 86.0 °F 84.9 °F 57.0 °F 37% 30.12 in 10.0 mi North 9.2 mph 16.1 mph N/A   Clear
2:58 PM 87.1 °F 85.7 °F 55.9 °F 35% 30.11 in 10.0 mi North 8.1 mph 17.3 mph N/A   Clear
3:58 PM 87.1 °F 85.3 °F 55.0 °F 33% 30.11 in 10.0 mi North 13.8 mph 21.9 mph N/A   Clear
4:58 PM 86.0 °F - 51.1 °F 30% 30.11 in 10.0 mi NNE 12.7 mph 18.4 mph N/A   Clear
5:58 PM 84.9 °F - 48.9 °F 29% 30.10 in 10.0 mi North 6.9 mph - N/A   Clear
6:58 PM 80.1 °F - 48.9 °F 34% 30.11 in 10.0 mi NNE 6.9 mph - N/A   Clear
7:58 PM 75.9 °F - 48.9 °F 38% 30.13 in 10.0 mi North 4.6 mph - N/A   Clear
8:58 PM 71.1 °F - 52.0 °F 51% 30.15 in 10.0 mi NNE 4.6 mph - N/A   Clear
9:58 PM 69.1 °F - 51.1 °F 53% 30.17 in 10.0 mi North 4.6 mph - N/A   Clear
10:58 PM 64.9 °F - 51.1 °F 61% 30.19 in 10.0 mi NNE 5.8 mph - N/A   Clear
11:58 PM 63.0 °F - 51.1 °F 65% 30.19 in 10.0 mi NNE 4.6 mph - N/A   Clear